Location: Baggettsville
(36.4767°N, 86.7303°W)
Time: 18:31:25
(UTC+00:00)

N. Korean satellite - Pass Details

Date: 26 September 2021
Orbit: 450 x 495 km, 97.3° (Epoch: 15 October)

Event Time Altitude Azimuth Distance (km) Brightness Sun altitude
Rises 10:55:10 0° 13° (NNE) 2,532 10.5 -9.5°
Reaches altitude 10° 10:57:13 10° 15° (NNE) 1,658 9.5 -9.1°
Maximum altitude 11:00:47 75° 101° (E) 505 6.8 -8.4°
Drops below altitude 10° 11:04:22 10° 187° (S) 1,669 9.2 -7.6°
Sets 11:06:27 0° 189° (S) 2,551 10.1 -7.2°
